TimeCST,TemperatureF,Dew PointF,Humidity,Sea Level PressureIn,VisibilityMPH,Wind Direction,Wind SpeedMPH,Gust SpeedMPH,PrecipitationIn,Events,Conditions,WindDirDegrees,DateUTC
12:53 AM,32.0,27.0,82,30.19,7.0,NNE,3.5,-,N/A,,Mostly Cloudy,20,2014-02-17 06:53:00
1:53 AM,32.0,27.0,82,30.17,7.0,Calm,Calm,-,N/A,,Overcast,0,2014-02-17 07:53:00
2:53 AM,32.0,27.0,82,30.16,7.0,ENE,4.6,-,N/A,,Overcast,60,2014-02-17 08:53:00
3:53 AM,32.0,28.0,85,30.16,7.0,NE,6.9,-,N/A,,Overcast,40,2014-02-17 09:53:00
4:53 AM,32.0,27.0,82,30.16,7.0,Calm,Calm,-,N/A,,Overcast,0,2014-02-17 10:53:00
5:53 AM,30.9,28.0,89,30.15,7.0,Calm,Calm,-,N/A,,Overcast,0,2014-02-17 11:53:00
6:53 AM,32.0,28.0,85,30.14,6.0,Calm,Calm,-,N/A,,Mostly Cloudy,0,2014-02-17 12:53:00
7:53 AM,35.1,30.0,82,30.13,6.0,ESE,4.6,-,N/A,,Haze,120,2014-02-17 13:53:00
8:53 AM,42.1,32.0,67,30.09,10.0,SE,10.4,-,N/A,,Scattered Clouds,140,2014-02-17 14:53:00
9:53 AM,51.1,33.1,50,30.07,10.0,South,9.2,-,N/A,,Mostly Cloudy,170,2014-02-17 15:53:00
10:53 AM,54.0,33.1,45,30.02,10.0,South,15.0,23.0,N/A,,Overcast,170,2014-02-17 16:53:00
11:53 AM,57.9,37.9,47,29.98,10.0,South,16.1,24.2,N/A,,Overcast,190,2014-02-17 17:53:00
12:53 PM,59.0,42.1,53,29.91,10.0,South,17.3,28.8,N/A,,Overcast,180,2014-02-17 18:53:00
1:53 PM,62.1,46.0,56,29.88,10.0,South,19.6,25.3,N/A,,Overcast,190,2014-02-17 19:53:00
2:53 PM,60.1,48.0,64,29.86,10.0,South,25.3,29.9,N/A,,Overcast,190,2014-02-17 20:53:00
3:14 PM,59.0,48.2,67,29.88,7.0,SSW,18.4,31.1,0.01,Rain,Light Rain,210,2014-02-17 21:14:00
3:53 PM,55.9,52.0,87,29.90,3.0,SSW,16.1,23.0,0.05,Rain,Light Rain,210,2014-02-17 21:53:00
4:53 PM,57.0,54.0,89,29.94,6.0,SW,10.4,20.7,0.06,Rain,Light Rain,230,2014-02-17 22:53:00
5:43 PM,55.4,50.0,82,30.01,10.0,WNW,11.5,24.2,0.02,,Mostly Cloudy,300,2014-02-17 23:43:00
5:53 PM,55.0,50.0,83,30.02,10.0,WNW,9.2,19.6,0.02,,Scattered Clouds,300,2014-02-17 23:53:00
6:53 PM,51.1,42.1,71,30.07,10.0,WNW,11.5,17.3,N/A,,Clear,290,2014-02-18 00:53:00
7:53 PM,48.9,41.0,74,30.12,10.0,West,4.6,-,N/A,,Clear,270,2014-02-18 01:53:00
8:53 PM,48.0,39.0,71,30.14,10.0,WSW,3.5,-,N/A,,Clear,250,2014-02-18 02:53:00
9:53 PM,46.0,37.9,73,30.15,10.0,Calm,Calm,-,N/A,,Clear,0,2014-02-18 03:53:00
10:53 PM,42.1,37.9,85,30.15,10.0,South,3.5,-,N/A,,Clear,170,2014-02-18 04:53:00
11:53 PM,37.9,36.0,93,30.16,10.0,South,5.8,-,N/A,,Clear,180,2014-02-18 05:53:00